Home > Weather > Santiago de Cuba > Past weeks

Flag for Cuba Weather for the Past 2 Weeks in Santiago de Cuba, Cuba

Now
81 °F

Passing clouds.


Feels Like: 83 °F
Forecast: 70 / 89 °F
Wind: 6 mph from North

Location: Santiago De Cuba - Oriente

Current Time: Apr 30, 2016 at 10:02:08 AM

Latest Report: Apr 30, 2016 at 8:50 AM


Visibility: N/A

Pressure: 29.92 "Hg

Humidity: 62%

Dew Point: 66 °F

Location of Santiago de CubaLocation

Historic Weather in Santiago de Cuba — Graph

°F

Santiago de Cuba Temperature Yesterday

Maximum temperature yesterday: 84 °F (at 10:51 AM)
Minimum temperature yesterday: 73 °F (at 4:52 AM)
Average temperature yesterday: 79 °F

High & Low Weather Summary for the Past Weeks

 TemperatureHumidityPressure
High90 °F (Apr 17, 12:51 PM)94% (Apr 16, 6:50 AM)30.04 "Hg (Apr 16, 6:50 AM)
Low68 °F (Apr 19, 2:50 AM)40% (Apr 18, 3:51 PM)29.83 "Hg (Apr 26, 3:50 PM)
Average78 °F68%29.94 "Hg
* Reported Apr 15 8:50 AM — Apr 30 8:50 AM, Santiago de Cuba, Weather by CustomWeather, © 2016

Note: Actual official high and low records may vary slightly from our data, if they occured in-between our weather recording intervals... More about our weather records

Advertising

Santiago de Cuba Weather History for the Previous 24 Hours

Scroll right to see more
 ConditionsComfort  
Time TempWeatherWind HumidityBarometerVisibility
8:50 AM
Sat, Apr 30
81 °FPassing clouds.6 mph62%29.92 "HgN/A
7:50 AM75 °FPassing clouds.7 mph74%29.92 "HgN/A
6:51 AM72 °FPassing clouds.6 mph78%29.92 "HgN/A
5:51 AM72 °FPassing clouds.7 mph78%29.89 "Hg6 mi
4:50 AM72 °FPassing clouds.6 mph78%29.89 "Hg6 mi
3:50 AM72 °FPassing clouds.7 mph78%29.89 "Hg6 mi
2:50 AM73 °FPassing clouds.7 mph74%29.89 "Hg6 mi
1:50 AM73 °FPassing clouds.9 mph78%29.89 "Hg6 mi
12:51 AM75 °FPassing clouds.10 mph69%29.92 "Hg6 mi
11:51 PM
Fri, Apr 29
77 °FPassing clouds.7 mph61%29.92 "Hg6 mi
10:50 PM77 °FPassing clouds.6 mph61%29.92 "Hg6 mi
9:50 PM77 °FPassing clouds.6 mph61%29.92 "Hg6 mi
8:50 PM79 °FPassing clouds.6 mph61%29.92 "Hg6 mi
7:50 PM79 °FPassing clouds.3 mph70%29.89 "Hg6 mi
6:50 PM81 °FScattered clouds.3 mph66%29.89 "Hg6 mi
5:51 PM82 °FScattered clouds.6 mph62%29.89 "Hg6 mi
4:50 PM84 °FScattered clouds.8 mph58%29.86 "Hg6 mi
3:52 PM84 °FScattered clouds.9 mph58%29.89 "Hg6 mi
2:50 PM84 °FScattered clouds.9 mph58%29.89 "Hg6 mi
1:50 PM84 °FScattered clouds.10 mph62%29.92 "Hg6 mi
12:50 PM84 °FScattered clouds.10 mph62%29.92 "Hg6 mi
11:51 AM84 °FScattered clouds.8 mph58%29.92 "Hg6 mi
10:51 AM84 °FScattered clouds.7 mph62%29.95 "Hg6 mi
Weather by CustomWeather, © 2016

See weather overviewHow to use our weather pages